#timestamp,LO_Frequency,Hit,StdDev 
1708668015.1,286046996.9,N
1708668016.0,286046996.9,N
1708668035.8,286046996.9,N
1708668055.7,286046996.6,Y
1708668075.5,286047001.2,P
1708668095.3,286046998.5,N
1708668115.2,286046998.8,N
1708668135.0,286046999.0,N
1708668135.9,286046999.0,N
1708668155.8,286046998.4,N
1708668175.6,286047001.1,N
1708668195.4,286046998.3,N
1708668215.3,286046998.3,N
1708668235.1,286046998.9,N
1708668255.8,286046999.0,N
1708668275.7,286046996.6,Y
1708668295.5,286046999.1,P
1708668315.4,286046998.4,P
1708668335.2,286046998.9,P
1708668355.0,286046998.9,Y
1708668355.9,286046998.9,P
1708668375.8,286047000.8,P
1708668395.6,286047000.7,N
1708668415.5,286047001.2,N
1708668435.3,286046998.1,N
1708668455.1,286046998.7,N
1708668475.9,286046997.0,N
1708668495.7,286046996.7,N
1708668515.5,286046997.0,N
1708668535.4,286046996.8,N
1708668555.2,286046997.7,N
1708668575.1,286046997.1,N
1708668576.0,286046997.1,N
1708668595.8,286046998.0,N
1708668615.6,286046995.0,Y
1708668635.5,286046997.0,P
1708668655.3,286046999.6,N
1708668675.2,286046997.1,N
1708668695.9,286046997.1,N
1708668715.7,286046996.8,Y
1708668735.6,286047001.2,P
1708668755.4,286047000.9,N
1708668775.2,286047001.0,N
1708668795.1,286047000.9,N
1708668796.0,286047000.9,N
1708668815.8,286046998.1,N
1708668835.7,286046998.2,N
1708668855.5,286046998.6,N
1708668875.3,286046999.3,N
1708668895.2,286046998.9,N
1708668915.0,286046999.5,N
1708668915.9,286046999.5,N
1708668935.7,286046996.7,N
1708668955.6,286046997.1,N
1708668975.4,286046995.0,Y
1708668995.3,286046997.2,P
1708669015.1,286046997.8,N
1708669035.8,286046997.6,N
1708669055.7,286046995.0,Y
1708669075.5,286046998.8,P
1708669095.4,286046999.0,N
1708669115.2,286046999.3,N
1708669135.0,286046999.1,N
1708669135.9,286046999.1,N
1708669155.8,286046997.0,Y
1708669175.6,286046999.3,P
1708669195.4,286046999.6,N
1708669215.3,286046999.2,N
1708669235.1,286046996.6,Y
1708669255.9,286046999.1,P
1708669275.7,286046999.6,P
1708669295.5,286046999.5,N
1708669315.4,286046996.5,Y
1708669335.2,286046999.1,P
1708669355.1,286046996.7,P
1708669356.0,286046996.7,N
1708669375.8,286046996.5,N
1708669395.6,286046996.9,N
1708669415.5,286046997.5,N
1708669435.3,286046996.7,N
1708669455.1,286046997.1,N
1708669475.9,286046997.0,N
1708669495.7,286046997.4,N
1708669515.6,286046997.2,Y
1708669535.4,286047001.2,P
1708669555.2,286047001.2,N
1708669575.1,286046999.5,N
1708669576.0,286046999.5,N
1708669595.8,286046999.4,N
1708669615.7,286046999.5,N
1708669635.5,286046999.6,N
1708669655.3,286046996.9,N
1708669675.2,286046997.0,N
1708669695.0,286046996.7,N
1708669695.9,286046996.7,N
1708669715.7,286046996.6,N
1708669735.6,286046997.4,N
1708669755.4,286046997.7,N
1708669775.3,286046997.4,N
1708669795.1,286046997.8,N
1708669796.0,286046997.8,N
1708669815.8,286046995.1,Y
1708669835.7,286046999.4,P
1708669855.5,286046996.6,P
1708669875.4,286046997.2,N
1708669895.2,286046997.8,N
1708669915.0,286046997.4,N
1708669915.9,286046997.4,N
1708669935.8,286046997.8,N
1708669955.6,286046997.4,Y
1708669975.4,286046998.8,P
1708669995.3,286046999.1,N
1708670015.1,286046996.5,P
1708670035.9,286046999.2,N
1708670055.7,286046999.6,N
1708670075.5,286046999.2,N
1708670095.4,286046999.6,N
1708670115.2,286046999.6,N
1708670135.1,286046996.6,Y
1708670136.0,286046996.6,P
1708670155.8,286046998.8,N
1708670175.6,286046998.8,N
1708670195.5,286046998.8,N
1708670215.3,286046999.0,N
1708670235.1,286046999.2,N
1708670255.9,286046996.8,Y
1708670275.7,286047000.8,P
1708670295.6,286046998.3,N
1708670315.4,286046998.3,N
1708670335.2,286046999.4,N
1708670355.1,286046998.6,N
1708670356.0,286046998.6,N
1708670375.8,286046998.9,N
1708670395.7,286046999.1,N
1708670415.5,286046998.8,N
1708670435.3,286046996.9,Y
1708670455.2,286046998.9,P
1708670475.0,286046998.7,P
1708670475.9,286046998.7,P
1708670495.8,286046998.4,Y
1708670515.6,286047000.6,P
1708670535.4,286047000.7,N
1708670555.3,286047001.1,N
1708670575.1,286046998.6,N
1708670595.8,286046998.6,N
1708670615.7,286046998.2,N
1708670635.5,286046998.9,N
1708670655.4,286046999.5,N
1708670675.2,286046996.6,Y
1708670695.0,286046996.6,P
1708670695.9,286046996.6,N
1708670715.8,286046999.2,N
1708670735.6,286046999.6,N
1708670755.4,286046999.2,N
1708670775.3,286046999.6,N
1708670795.1,286046997.3,N
1708670815.9,286046999.0,N
1708670835.7,286046999.6,N
1708670855.5,286046998.9,N
1708670875.4,286046999.5,N
1708670895.2,286046998.3,N
1708670915.1,286046999.3,N
1708670916.0,286046999.3,N
1708670935.8,286046998.6,N
1708670955.6,286047001.1,N
1708670975.5,286047000.3,N
1708670995.3,286047002.8,N
1708671015.1,286047002.5,N
1708671035.9,286047002.2,N
1708671055.7,286047002.0,N
1708671075.6,286047003.9,N
1708671095.4,286047003.6,N
1708671115.2,286047005.9,N
1708671135.1,286047006.0,N
1708671136.0,286047006.0,N
1708671155.8,286047006.0,N
1708671175.6,286047005.9,N
1708671195.5,286047005.6,N
1708671215.3,286047005.3,N
1708671235.2,286047006.0,N
1708671255.9,286047005.5,N
1708671275.7,286047005.6,N
1708671295.6,286047007.6,N
1708671315.4,286047007.2,N
1708671335.2,286047007.4,N
1708671355.1,286047007.0,N
1708671356.0,286047007.0,N
1708671375.8,286047006.3,N
1708671395.7,286047006.8,N
1708671415.5,286047007.5,N
1708671435.3,286047006.6,N
1708671455.2,286047006.7,N
1708671475.0,286047006.4,N
1708671475.9,286047006.4,N
1708671495.8,286047006.1,Y
1708671515.6,286047001.7,P
1708671535.4,286047000.2,N
1708671555.3,286047002.6,N
1708671575.1,286047000.2,N
1708671595.8,286047002.4,N
